Powrót do katalogu

SHUTIANYUXING-05

AktywnyNaukaSSO
NORAD 67751·PAYLOAD·🇨🇳 China
Ta nazwa satelity nie została jeszcze potwierdzona przez oficjalne źródła.

Wystrzelony Feb 12, 2026 z South China Sea Launch Area

Loading…

Następne Przeloty (najbliższe 24 godziny)

TLE

ŚwieżeSource: Space-Track

Epoka: Sep 14, 2026, 14:59 UTC

1 67751U 26027F   26257.62497511  .00004445  00000-0  25495-3 0  9995
2 67751  97.5186  23.7190 0010298 159.4274 200.7374 15.13036076 32435

Śledź SHUTIANYUXING-05 w czasie rzeczywistym z AllMySat

Download on the App Store